Regional Weather Roundup
Issued by NWS

Home | Current Version | Previous Version | Text Only | Print | Product List | Glossary On
Versions: 1 2 3 4 5 6 7 8 9 10 11 12 13 14 15 16 17 18 19 20 21 22 23 24 25 26 27 28 29 30 31 32 33 34 35 36 37 38 39 40 41 42 43 44 45 46 47 48 49 50
000
ASUS45 KCYS 231610
RWRWY

WYOMING REGIONAL WEATHER ROUNDUP
NATIONAL WEATHER SERVICE CHEYENNE WY
1000 AM MDT TUE SEP 23 2014

NOTE:  "FAIR" INDICATES FEW OR NO CLOUDS BELOW 12,000 FEET
WITH NO SIGNIFICANT WEATHER AND/OR OBSTRUCTIONS TO VISIBILITY.

WYZ001-231700-
YELLOWSTONE NATIONAL PARK

CITY           SKY/WX    TMP DP  RH WIND       PRES   REMARKS
LK YELLOWSTONE   N/A     50  46  86 CALM      30.35R
W YELLOWSTONE  NOT AVBL

$$
WYZ002>013-054>058-071-098>099-231700-
NORTHERN WYOMING

CITY           SKY/WX    TMP DP  RH WIND       PRES   REMARKS
JACKSON        CLOUDY    52  52 100 CALM      30.30R
CODY           SUNNY     70  46  43 W7        30.11R
GREYBULL       SUNNY     65  48  54 CALM      30.06S
WORLAND        SUNNY     65  47  52 W5        30.08R
SHERIDAN       MOSUNNY   71  49  45 CALM      30.01R
BUFFALO        MOSUNNY   72  45  37 VRB5      30.07R
GILLETTE       SUNNY     69  47  45 W8G17     30.01S
HULETT         PTSUNNY   61  55  82 MISG      30.01
NEWCASTLE      LGT RAIN  59  57  94 N6        30.02

$$
WYZ014>020-022>026-101>103-231700-
CENTRAL WYOMING

CITY           SKY/WX    TMP DP  RH WIND       PRES   REMARKS
BIG PINEY      SUNNY     53  46  77 CALM      30.30S
PINEDALE       SUNNY     54  46  76 NW5       30.31R
DUBOIS         FAIR      59  39  47 MISG      30.27R
LANDER         SUNNY     66  44  45 CALM      30.15R
RIVERTON       SUNNY     62  44  51 NW7       30.16R
CASPER         SUNNY     67  41  38 SW16      30.12R
DOUGLAS        SUNNY     71  42  35 NW15      30.08S

$$
WYZ021-027>030-104>119-231700-
SOUTHERN WYOMING

CITY           SKY/WX    TMP DP  RH WIND       PRES   REMARKS
EVANSTON       SUNNY     61  46  57 SW10      30.32R
KEMMERER       SUNNY     55  43  62 CALM      30.33R
FORT BRIDGER   PTSUNNY   60  48  64 W5        30.34R
ROCK SPRINGS   SUNNY     56  44  64 VRB3      30.29R
DIXON          PTSUNNY   59  52  78 CALM      30.31S
RAWLINS        SUNNY     60  44  55 W16       30.25R
SARATOGA       FAIR      59  46  63 W17G23    30.28S
LARAMIE        SUNNY     62  41  46 W14       30.23R
CHEYENNE       SUNNY     68  43  40 NW10      30.16F
TORRINGTON     SUNNY     68  50  52 N6        30.03S
PINE BLUFFS    FAIR      70  45  40 W17G23    30.12S

$$


USA.gov is the U.S. government's official web portal to all federal, state and local government web resources and services.